SCP
0 0 0 0 0 0 0 0 0 0 0 0 0 0 0 0 0 0 -0 -0 -0 -0 -0 -0 -0 -0 -0 -0 -0 -0 -0 -0 -0 -0 -0 -0 -0 -0 -0 -0 -0 -0 -0 -0 -0 -0 -0 -0 -0
0 0 0 0 0 0 0 0 0 0 0 0 0 0 0 0 0 0 0 0 -0 -0 0 0 -0 -0 -0 -0 -0 -0 -0 -0 -0 -0 -0 -0 -0 -0 -0 -0 -0 -0 -0 -0 -0 -0 -0 -0 0
0 0 0 0 0 0 0 0 0 0 0 0 0 0 0 0 0 0 0 0 -0 0 0 0 0 -0 -0 -0 -0 -0 -0 -0 -0 -0 -0 -0 -0 -0 -0 -0 -0 -0 -0 -0 -0 0 0 0 0
0 0 0 0 0 0 0 0 0 0 0 0 0 0 0 0 0 0 0 0 0 0 0 0 0 0 0 0 -0 -0 -0 -0 -0 -0 0 -0 -0 -0 0 0 0 0 0 0 0 0 0 0 0
0 0 0 0 0 0 0 0 0 0 0 0 0 0 0 0 0 -0 0 0 0 0 0 0 0 0 0 0 0 0 0 0 0 0 0 0 0 0 0 0 0 0 0 0 0 0 0 0 0
0 0 0 0 0 0 0 0 0 0 0 0 0 0 0 0 0 0 0 0 0 0 0 0 0 0 0 0 0 0 0 0 0 0 0 0 0 0 0 0 0 0 0 0 0 0 0 0 0
0 0 0 0 0 0 0 0 0 0 0 0 0 0 0 0 0 0 0 0 0 0 0 0 0 0 0 0 0 0 0 0 0 0 0 0 0 0 0 0 0 0 0 0 0 0 0 0 0
0 0 0 0 0 0 0 0 0 0 0 0 0 0 0 0 0 0 0 0 0 0 0 0 0 0 0 0 0 0 0 0 0 0 0 0 0 0 0 0 0 0 0 0 0 0 0 0 0
0 0 0 0 0 0 0 0 0 0 0 0 0 0 0 0 0 0 0 0 0 0 0 0 0 0 0 0 0 0 0 0 0 0 0 0 0 0 0 0 0 0 0 0 0 0 0 0 0
0 0 0 0 0 0 0 0 0 0 0 0 0 0 0 0 0 0 0 0 0 0 0 0 0 0 0 0 0 0 0 0 0 0 0 0 0 0 0 0 0 0 0 0 0 0 0 0 0
0 0 0 0 0 0 0 0 0 0 0 0 0 0 0 0 0 0 0 0 0 0 0 0 0 0 0 0 0 0 0 0 0 0 0 0 0 0 0 0 0 0 0 0 0 0 0 0 0
0 0 0 0 0 0 0 0 0 0 0 0 0 0 0 0 0 0 0 0 0 0 0 0 0 0 0 0 0 0 0 0 0 0 0 0 0 0 0 0 0 0 0 0 0 0 0 0 0
0 0 0 0 0 0 0 0 0 0 0 0 0 0 0 0 0 0 0 0 0 0 0 0 0 0 0 0 0 0 0 0 0 0 0 0 0 0 0 0 0 0 0 0 0 0 0 0 0
0 0 0 0 0 0 0 0 0 0 0 0 0 0 0 0 0 0 0 0 0 0 0 0 0 0 0 0 0 0 0 0 0 0 0 0 0 0 0 0 0 0 0 0 0 0 0 0 0
0 0 0 0 0 0 0 0 0 0 0 0 0 0 0 0 0 0 0 0 0 0 0 0 0 0 0 0 0 0 0 0 0 0 0 0 0 0 0 0 0 0 0 0 0 0 0 0 0
0 0 0 0 0 0 0 0 0 0 0 0 0 0 0 0 0 0 0 0 0 0 0 0 0 0 0 0 0 0 0 0 0 0 0 0 0 0 0 0 0 0 0 0 0 0 0 0 -0
0 0 0 0 0 0 0 0 0 0 0 0 0 0 0 0 0 0 0 0 0 0 0 0 0 0 0 0 0 0 0 0 0 0 0 0 0 0 0 0 0 0 0 0 0 0 0 0 -0
0 0 0 0 0 0 0 0 0 0 0 0 0 0 0 0 0 0 0 0 0 0 0 0 0 0 0 0 0 0 0 0 0 0 0 0 0 0 0 0 0 0 0 0 0 0 0 -0 -0
0 0 0 0 0 0 0 0 0 0 0 0 0 0 0 0 0 0 0 0 0 0 0 0 0 0 0 0 0 0 0 0 0 0 0 0 0 0 0 0 0 0 0 0 0 0 0 0 -0
0 0 0 0 0 0 0 0 0 0 0 0 0 0 0 0 0 0 0 0 0 0 0 0 0 0 0 0 0 0 0 0 0 0 0 0 0 0 0 0 0 0 0 0 0 0 0 0 -0
0 0 0 0 0 0 0 0 0 0 0 0 0 0 0 0 0 0 0 0 0 0 0 0 0 0 0 0 0 0 0 0 0 0 0 0 0 0 0 0 0 0 0 0 0 0 0 0 0
0 0 0 0 0 0 0 -0 0 0 0 0 0 0 0 0 0 0 0 0 0 0 0 0 0 0 0 0 0 0 0 0 0 0 0 0 0 0 0 0 0 0 0 0 0 0 0 0 0
0 0 0 0 0 0 0 0 0 0 0 0 0 0 0 0 0 0 0 0 0 0 0 0 0 0 0 0 0 0 0 0 0 0 0 0 0 0 0 0 0 0 0 0 0 0 0 0 0
0 0 0 0 0 0 0 0 0 0 0 0 0 0 0 0 0 0 0 0 0 0 0 0 0 0 0 0 0 0 0 0 0 0 0 0 0 0 0 0 0 0 0 0 0 0 0 0 0
0 0 0 0 0 0 0 0 0 0 0 0 0 0 0 0 0 0 0 0 0 0 0 0 0 0 0 0 0 0 0 0 0 0 0 0 0 0 0 0 0 0 0 0 0 0 0 0 0
0 0 0 0 0 0 0 0 0 0 0 0 0 0 0 0 0 0 0 0 0 0 0 0 0 0 0 0 0 0 0 0 0 0 0 0 0 0 0 0 0 0 0 0 0 0 0 0 0
0 0 0 0 0 0 0 0 0 0 0 0 0 0 0 0 0 0 0 0 0 0 0 0 0 0 0 0 0 0 0 0 0 0 0 0 0 0 0 0 0 0 0 0 0 0 0 0 0
0 0 0 0 0 0 0 0 0 0 0 0 0 0 0 0 0 0 0 0 0 0 0 0 0 0 0 0 0 0 0 0 0 0 0 0 0 0 0 0 0 0 0 0 0 0 0 0 0
0 0 0 0 0 0 0 0 0 0 0 0 0 0 0 0 0 0 0 0 0 0 0 0 0 0 0 0 0 0 0 0 0 0 0 0 0 0 0 0 0 0 0 0 0 0 0 0 0
0 0 0 0 0 0 0 0 0 0 0 0 0 0 0 0 0 0 0 0 0 0 0 0 0 0 0 0 0 0 0 0 0 0 0 0 0 0 0 0 0 0 0 0 0 0 0 0 0
Wind_Speed_500mb
8 9 5 4 7 9 8 9 4 5 5 6 18 7 13 6 4 7 29 31 28 31 27 23 22 22 19 13 16 14 15 14 10 5 4 4 8 10 12 10 11 12 11 11 11 13 12 13 14
8 10 5 1 6 3 9 6 9 4 10 11 12 8 10 2 3 11 34 37 34 34 28 24 19 18 15 14 13 13 12 11 11 12 13 12 12 14 15 16 16 15 16 17 18 19 18 17 18
7 5 2 6 5 7 7 10 14 13 15 10 7 2 2 10 11 10 21 35 40 33 29 23 22 19 16 15 13 13 12 12 16 15 15 15 15 16 16 17 17 18 19 20 23 24 23 22 21
6 3 3 5 15 14 7 10 16 20 8 13 10 5 8 17 9 13 22 31 39 36 30 28 25 21 19 18 17 16 16 16 14 13 11 10 11 13 14 15 15 16 19 22 23 23 23 26 26
4 2 1 5 13 10 4 34 28 11 14 17 17 8 8 23 27 21 18 34 42 40 35 30 27 24 22 20 19 18 16 15 13 11 10 9 10 11 11 11 12 12 13 14 15 17 19 23 24
3 2 4 6 8 5 7 21 23 15 14 17 14 7 8 19 28 26 27 33 42 40 37 35 33 30 27 21 17 15 14 12 10 10 8 6 4 1 3 5 7 8 10 12 13 13 13 13 14
4 6 8 9 12 8 5 17 12 18 22 25 14 11 9 29 27 28 32 36 42 42 41 39 37 33 26 22 20 18 15 12 10 7 4 3 2 2 2 1 3 6 8 10 12 15 16 17 16
5 6 8 9 7 9 12 10 7 13 14 12 29 14 12 32 33 33 37 41 44 46 45 43 40 36 31 28 25 22 19 17 15 12 9 6 4 1 2 5 8 11 13 15 17 18 19 20 19
4 5 7 10 4 4 13 8 11 10 13 16 26 22 20 18 35 39 46 48 50 52 52 51 48 43 37 34 31 28 25 22 18 14 10 10 7 6 9 12 15 18 21 21 23 24 23 24 25
8 6 12 7 6 5 6 14 15 11 15 20 29 40 41 35 38 46 52 53 53 54 57 57 54 50 44 41 37 33 29 24 20 16 13 10 9 11 12 14 15 16 17 18 21 24 27 29 29
10 12 8 9 15 10 6 8 16 18 14 36 49 59 53 51 51 54 57 58 54 52 57 58 58 56 51 47 43 39 34 30 27 23 21 19 20 19 17 16 16 17 18 21 22 25 27 27 29
9 24 39 28 23 11 6 13 14 36 52 24 26 37 60 62 60 59 61 61 61 61 59 59 61 61 58 53 48 44 39 34 31 29 27 25 23 22 20 19 20 19 19 20 23 26 29 32 31
10 12 30 28 28 31 27 35 24 51 53 52 57 57 45 57 69 67 63 61 61 66 64 64 64 66 64 60 55 51 46 42 39 37 34 31 29 26 24 23 22 20 22 22 25 29 31 32 31
8 18 26 35 50 32 20 17 14 57 44 48 64 62 65 69 70 65 70 73 70 69 68 66 67 67 67 65 60 55 50 48 46 43 40 36 32 29 27 26 24 23 23 26 29 33 35 37 37
12 15 17 35 45 14 22 19 27 71 54 43 48 57 72 76 69 75 72 76 73 73 68 68 69 66 67 65 63 60 56 54 51 47 45 41 36 32 29 28 26 25 26 28 32 35 37 39 39
5 4 9 12 17 11 24 30 20 31 40 59 67 63 59 67 77 78 75 74 74 72 72 70 72 70 67 66 68 64 61 57 54 51 49 44 40 36 33 32 31 30 29 31 34 37 39 40 42
7 12 16 20 22 13 12 23 22 33 47 62 64 66 70 68 74 77 76 77 77 74 75 77 78 75 69 66 70 67 64 61 58 55 53 49 47 41 37 36 34 31 29 31 33 35 38 42 43
15 12 12 17 9 7 13 37 28 45 22 39 50 52 61 78 91 85 79 81 80 78 78 79 79 75 70 68 71 70 67 66 63 61 58 56 51 46 43 40 37 32 31 33 35 35 36 39 47
9 12 16 37 20 19 35 36 40 57 46 51 75 84 89 98 100 87 80 75 84 84 84 85 84 80 76 78 80 81 79 74 71 66 63 59 53 48 45 42 38 33 33 36 37 37 37 38 43
21 28 30 29 21 21 30 41 34 23 35 57 60 82 96 93 89 73 65 68 88 91 89 86 84 81 79 79 80 81 77 74 68 64 64 59 56 53 50 46 40 36 36 39 40 39 38 38 41
38 28 37 36 20 12 18 21 25 23 39 61 75 94 99 88 82 69 63 67 83 95 93 88 83 79 79 76 76 80 73 70 72 76 73 67 63 60 57 51 44 39 39 40 41 40 37 35 37
41 20 26 23 7 25 9 29 18 14 27 21 53 79 87 83 74 62 64 69 85 94 89 81 75 76 76 77 80 85 87 88 88 81 74 69 67 64 60 55 48 43 41 42 42 39 37 37 37
38 7 10 4 9 11 12 14 9 18 18 22 32 71 87 84 69 54 60 62 82 89 85 76 73 75 77 77 82 86 90 89 81 74 70 69 68 66 64 59 53 47 43 43 42 40 38 41 40
6 2 1 6 5 24 15 19 9 13 22 13 29 64 70 66 53 45 57 66 79 81 78 76 78 79 80 78 81 85 88 89 82 79 77 76 73 69 68 63 58 50 45 44 43 40 41 44 45
3 10 8 8 1 27 23 22 44 13 13 22 25 52 62 65 41 32 59 69 70 79 80 81 83 87 85 81 81 82 86 87 84 82 83 82 79 77 72 66 61 53 48 47 45 44 44 46 47
19 21 14 15 22 43 6 17 13 24 30 52 66 66 68 42 34 47 49 54 61 72 80 83 88 90 88 88 85 82 84 85 85 86 87 86 82 75 66 65 63 57 51 51 49 47 47 46 47
8 12 18 1 5 4 22 26 16 8 21 20 42 34 40 43 46 52 47 47 51 66 78 84 87 92 94 95 93 89 87 86 87 87 87 85 81 74 71 69 64 59 54 52 50 49 49 46 47
12 3 4 3 5 15 35 9 30 28 43 39 12 24 35 37 39 41 41 44 47 56 67 84 86 92 98 100 98 95 93 87 87 86 87 87 84 82 77 72 66 61 55 52 52 51 50 48 45
2 8 9 4 11 29 36 29 13 10 5 7 14 24 27 26 31 35 37 41 44 59 71 80 87 91 98 103 103 103 101 97 93 87 87 88 86 85 79 73 67 61 56 55 54 51 50 48 45
8 16 21 19 22 10 14 29 43 23 18 11 19 19 23 13 20 40 41 41 63 65 69 77 85 94 93 100 107 109 108 103 98 92 89 87 85 83 79 74 69 65 60 59 56 53 48 47 46
Wind_Direction_500mb
180 160 157 78 41 68 269 259 94 82 65 67 71 87 120 85 149 198 168 195 196 191 191 197 197 192 194 198 196 199 195 214 234 272 291 295 309 320 316 318 306 301 298 295 296 296 305 307 309
168 148 94 9 98 74 269 212 129 152 142 120 94 60 67 135 180 166 170 201 203 192 189 193 194 194 195 195 198 205 210 221 240 255 267 280 277 281 286 287 284 282 287 292 294 301 305 307 303
142 137 70 111 174 195 217 191 151 133 142 141 115 105 173 185 213 206 192 201 203 194 188 189 189 195 198 204 206 217 216 219 232 249 262 269 273 274 279 281 283 285 288 285 284 288 291 288 285
154 136 271 97 248 264 199 154 148 134 127 159 151 156 202 202 213 192 208 196 198 195 195 193 197 197 192 187 190 196 197 209 219 231 244 257 275 279 278 277 280 284 286 289 293 294 291 289 288
140 189 44 257 269 256 221 155 155 144 162 196 178 224 219 211 228 233 217 202 202 196 199 202 202 195 189 186 189 190 189 202 205 219 232 243 254 267 284 300 309 310 306 305 305 304 301 296 294
345 281 25 251 254 248 189 153 154 162 188 183 193 185 233 230 226 226 221 208 206 205 205 207 206 202 198 203 205 201 201 206 212 216 213 212 224 295 337 350 340 340 344 342 343 336 328 322 320
158 99 229 250 256 298 212 160 169 186 178 189 185 166 225 217 217 223 216 213 214 211 212 213 208 207 210 211 211 207 202 203 207 209 212 198 156 183 158 309 340 347 352 345 341 337 331 328 325
274 98 283 247 243 247 160 147 187 210 241 221 201 219 227 227 214 212 213 216 218 216 218 220 217 216 217 218 217 211 204 198 197 199 203 202 211 269 355 350 351 349 343 339 333 331 329 326 326
265 49 259 261 268 216 171 160 194 233 233 205 206 238 234 226 211 208 210 215 219 220 223 221 220 221 218 220 215 210 204 202 207 212 211 218 242 269 306 322 329 330 333 337 332 331 328 320 317
169 158 236 232 290 282 209 199 196 205 233 234 232 237 246 241 227 220 220 223 226 224 224 225 224 223 223 223 219 215 213 215 217 223 232 241 255 268 276 287 300 314 318 319 322 321 321 320 317
204 213 219 288 307 302 276 248 239 201 235 229 235 239 239 242 238 235 234 239 241 234 228 229 226 227 225 225 223 221 218 218 221 226 234 239 247 254 262 273 285 293 301 309 314 319 320 316 311
229 247 256 279 280 268 264 275 258 236 246 260 256 253 247 238 240 242 240 241 238 236 236 233 229 228 228 226 224 223 223 224 225 227 231 234 244 254 263 272 278 287 291 294 304 316 320 318 315
224 260 272 278 282 253 248 257 257 267 260 258 253 258 251 246 247 245 248 245 241 238 238 235 232 230 228 228 224 223 222 224 226 229 231 237 242 250 259 267 274 279 283 290 301 307 311 313 311
248 263 272 280 271 251 210 259 235 272 274 263 246 246 254 254 255 253 246 245 241 241 238 237 234 231 228 227 225 225 224 226 227 228 231 233 238 247 257 264 271 273 280 290 300 306 314 318 319
278 313 309 265 255 224 202 284 225 270 262 257 253 249 245 252 253 255 256 252 247 243 239 238 236 233 230 227 226 224 224 226 228 229 230 232 237 245 252 258 263 269 277 290 299 308 318 322 319
237 193 285 273 136 195 154 260 247 256 251 247 245 247 243 248 251 256 258 257 251 243 237 236 236 235 233 227 226 224 224 226 230 231 231 233 240 245 249 252 256 262 275 288 296 306 317 322 320
263 237 216 297 188 142 174 254 270 263 240 245 249 246 245 250 255 253 257 256 252 245 238 234 236 234 233 228 226 225 226 229 231 232 235 235 237 240 242 248 253 260 273 285 294 306 315 320 320
213 225 242 237 200 163 199 246 260 255 246 239 248 255 255 256 262 264 261 255 247 242 240 237 235 231 231 230 226 226 226 229 231 232 233 233 235 235 239 245 250 258 269 281 292 302 312 320 321
237 256 238 268 259 205 240 240 251 255 257 249 258 264 265 268 274 271 267 258 243 236 233 232 231 228 227 226 221 223 226 227 231 232 233 234 235 236 239 244 249 258 273 282 288 295 306 317 322
248 259 264 278 270 198 251 252 254 240 248 251 243 256 262 265 270 270 261 253 235 233 230 230 231 230 229 229 227 228 231 231 235 237 236 236 236 237 239 243 247 255 268 279 287 294 303 313 323
248 248 258 255 291 238 283 267 251 244 244 249 255 259 264 262 265 265 253 244 229 225 227 229 231 231 230 230 227 227 226 230 231 232 234 235 236 236 238 240 245 254 267 276 281 287 295 307 313
262 224 256 270 281 274 136 290 220 239 236 238 247 255 259 265 264 261 245 235 226 226 226 231 233 230 229 229 226 227 228 228 232 237 239 238 237 237 238 240 244 251 265 274 278 283 292 299 304
263 210 246 228 241 316 176 283 209 192 235 243 244 252 264 268 268 247 234 232 222 222 225 230 232 228 227 228 228 229 231 234 237 239 237 236 236 236 237 240 244 250 261 270 274 280 289 295 297
130 123 4 27 59 264 180 210 180 193 218 230 244 254 260 260 257 243 231 221 220 222 225 228 226 226 226 227 230 231 233 235 234 234 233 234 235 235 237 238 241 247 257 266 270 276 283 289 294
154 85 304 314 359 258 183 220 254 284 230 214 225 240 237 244 249 233 213 214 220 223 224 224 224 224 224 226 229 232 234 235 234 236 238 235 234 234 235 237 240 245 254 264 270 274 281 288 293
196 184 176 214 264 278 120 249 253 226 236 240 236 240 239 241 219 228 214 222 224 224 224 223 224 225 225 226 228 231 235 236 236 236 239 238 238 238 238 238 238 242 249 259 264 270 276 283 288
176 176 215 339 94 334 262 272 291 292 276 273 246 240 234 232 212 218 224 229 229 226 226 225 226 226 227 227 228 231 235 236 236 236 239 239 239 237 234 235 238 240 245 254 263 269 274 279 285
174 170 86 247 211 243 270 258 270 284 280 280 244 216 209 204 214 219 231 237 238 238 236 233 232 234 232 230 230 232 236 236 238 238 240 238 237 235 234 234 235 240 246 253 258 265 271 278 284
127 253 230 262 193 247 262 273 220 193 236 308 245 228 216 221 236 244 241 244 246 245 242 239 237 238 237 238 236 235 235 235 236 239 239 238 236 234 233 234 236 239 246 253 258 264 269 276 281
198 214 211 238 257 231 267 266 270 313 325 330 304 246 206 213 281 279 264 277 273 256 247 246 245 243 244 243 240 238 237 237 238 240 239 238 235 234 233 233 235 238 243 250 255 261 270 275 280
Wind_Speed_850mb
8 9 5 4 7 9 8 9 4 5 5 6 18 7 13 6 4 7 29 31 28 31 27 23 22 22 19 13 16 14 15 14 10 5 4 4 8 10 12 10 11 12 11 11 11 13 12 13 14
8 10 5 1 6 3 9 6 9 4 10 11 12 8 10 2 3 11 34 37 34 34 28 24 19 18 15 14 13 13 12 11 11 12 13 12 12 14 15 16 16 15 16 17 18 19 18 17 18
7 5 2 6 5 7 7 10 14 13 15 10 7 2 2 10 11 10 21 35 40 33 29 23 22 19 16 15 13 13 12 12 16 15 15 15 15 16 16 17 17 18 19 20 23 24 23 22 21
6 3 3 5 15 14 7 10 16 20 8 13 10 5 8 17 9 13 22 31 39 36 30 28 25 21 19 18 17 16 16 16 14 13 11 10 11 13 14 15 15 16 19 22 23 23 23 26 26
4 2 1 5 13 10 4 34 28 11 14 17 17 8 8 23 27 21 18 34 42 40 35 30 27 24 22 20 19 18 16 15 13 11 10 9 10 11 11 11 12 12 13 14 15 17 19 23 24
3 2 4 6 8 5 7 21 23 15 14 17 14 7 8 19 28 26 27 33 42 40 37 35 33 30 27 21 17 15 14 12 10 10 8 6 4 1 3 5 7 8 10 12 13 13 13 13 14
4 6 8 9 12 8 5 17 12 18 22 25 14 11 9 29 27 28 32 36 42 42 41 39 37 33 26 22 20 18 15 12 10 7 4 3 2 2 2 1 3 6 8 10 12 15 16 17 16
5 6 8 9 7 9 12 10 7 13 14 12 29 14 12 32 33 33 37 41 44 46 45 43 40 36 31 28 25 22 19 17 15 12 9 6 4 1 2 5 8 11 13 15 17 18 19 20 19
4 5 7 10 4 4 13 8 11 10 13 16 26 22 20 18 35 39 46 48 50 52 52 51 48 43 37 34 31 28 25 22 18 14 10 10 7 6 9 12 15 18 21 21 23 24 23 24 25
8 6 12 7 6 5 6 14 15 11 15 20 29 40 41 35 38 46 52 53 53 54 57 57 54 50 44 41 37 33 29 24 20 16 13 10 9 11 12 14 15 16 17 18 21 24 27 29 29
10 12 8 9 15 10 6 8 16 18 14 36 49 59 53 51 51 54 57 58 54 52 57 58 58 56 51 47 43 39 34 30 27 23 21 19 20 19 17 16 16 17 18 21 22 25 27 27 29
9 24 39 28 23 11 6 13 14 36 52 24 26 37 60 62 60 59 61 61 61 61 59 59 61 61 58 53 48 44 39 34 31 29 27 25 23 22 20 19 20 19 19 20 23 26 29 32 31
10 12 30 28 28 31 27 35 24 51 53 52 57 57 45 57 69 67 63 61 61 66 64 64 64 66 64 60 55 51 46 42 39 37 34 31 29 26 24 23 22 20 22 22 25 29 31 32 31
8 18 26 35 50 32 20 17 14 57 44 48 64 62 65 69 70 65 70 73 70 69 68 66 67 67 67 65 60 55 50 48 46 43 40 36 32 29 27 26 24 23 23 26 29 33 35 37 37
12 15 17 35 45 14 22 19 27 71 54 43 48 57 72 76 69 75 72 76 73 73 68 68 69 66 67 65 63 60 56 54 51 47 45 41 36 32 29 28 26 25 26 28 32 35 37 39 39
5 4 9 12 17 11 24 30 20 31 40 59 67 63 59 67 77 78 75 74 74 72 72 70 72 70 67 66 68 64 61 57 54 51 49 44 40 36 33 32 31 30 29 31 34 37 39 40 42
7 12 16 20 22 13 12 23 22 33 47 62 64 66 70 68 74 77 76 77 77 74 75 77 78 75 69 66 70 67 64 61 58 55 53 49 47 41 37 36 34 31 29 31 33 35 38 42 43
15 12 12 17 9 7 13 37 28 45 22 39 50 52 61 78 91 85 79 81 80 78 78 79 79 75 70 68 71 70 67 66 63 61 58 56 51 46 43 40 37 32 31 33 35 35 36 39 47
9 12 16 37 20 19 35 36 40 57 46 51 75 84 89 98 100 87 80 75 84 84 84 85 84 80 76 78 80 81 79 74 71 66 63 59 53 48 45 42 38 33 33 36 37 37 37 38 43
21 28 30 29 21 21 30 41 34 23 35 57 60 82 96 93 89 73 65 68 88 91 89 86 84 81 79 79 80 81 77 74 68 64 64 59 56 53 50 46 40 36 36 39 40 39 38 38 41
38 28 37 36 20 12 18 21 25 23 39 61 75 94 99 88 82 69 63 67 83 95 93 88 83 79 79 76 76 80 73 70 72 76 73 67 63 60 57 51 44 39 39 40 41 40 37 35 37
41 20 26 23 7 25 9 29 18 14 27 21 53 79 87 83 74 62 64 69 85 94 89 81 75 76 76 77 80 85 87 88 88 81 74 69 67 64 60 55 48 43 41 42 42 39 37 37 37
38 7 10 4 9 11 12 14 9 18 18 22 32 71 87 84 69 54 60 62 82 89 85 76 73 75 77 77 82 86 90 89 81 74 70 69 68 66 64 59 53 47 43 43 42 40 38 41 40
6 2 1 6 5 24 15 19 9 13 22 13 29 64 70 66 53 45 57 66 79 81 78 76 78 79 80 78 81 85 88 89 82 79 77 76 73 69 68 63 58 50 45 44 43 40 41 44 45
3 10 8 8 1 27 23 22 44 13 13 22 25 52 62 65 41 32 59 69 70 79 80 81 83 87 85 81 81 82 86 87 84 82 83 82 79 77 72 66 61 53 48 47 45 44 44 46 47
19 21 14 15 22 43 6 17 13 24 30 52 66 66 68 42 34 47 49 54 61 72 80 83 88 90 88 88 85 82 84 85 85 86 87 86 82 75 66 65 63 57 51 51 49 47 47 46 47
8 12 18 1 5 4 22 26 16 8 21 20 42 34 40 43 46 52 47 47 51 66 78 84 87 92 94 95 93 89 87 86 87 87 87 85 81 74 71 69 64 59 54 52 50 49 49 46 47
12 3 4 3 5 15 35 9 30 28 43 39 12 24 35 37 39 41 41 44 47 56 67 84 86 92 98 100 98 95 93 87 87 86 87 87 84 82 77 72 66 61 55 52 52 51 50 48 45
2 8 9 4 11 29 36 29 13 10 5 7 14 24 27 26 31 35 37 41 44 59 71 80 87 91 98 103 103 103 101 97 93 87 87 88 86 85 79 73 67 61 56 55 54 51 50 48 45
8 16 21 19 22 10 14 29 43 23 18 11 19 19 23 13 20 40 41 41 63 65 69 77 85 94 93 100 107 109 108 103 98 92 89 87 85 83 79 74 69 65 60 59 56 53 48 47 46
Wind_Direction_850mb
180 160 157 78 41 68 269 259 94 82 65 67 71 87 120 85 149 198 168 195 196 191 191 197 197 192 194 198 196 199 195 214 234 272 291 295 309 320 316 318 306 301 298 295 296 296 305 307 309
168 148 94 9 98 74 269 212 129 152 142 120 94 60 67 135 180 166 170 201 203 192 189 193 194 194 195 195 198 205 210 221 240 255 267 280 277 281 286 287 284 282 287 292 294 301 305 307 303
142 137 70 111 174 195 217 191 151 133 142 141 115 105 173 185 213 206 192 201 203 194 188 189 189 195 198 204 206 217 216 219 232 249 262 269 273 274 279 281 283 285 288 285 284 288 291 288 285
154 136 271 97 248 264 199 154 148 134 127 159 151 156 202 202 213 192 208 196 198 195 195 193 197 197 192 187 190 196 197 209 219 231 244 257 275 279 278 277 280 284 286 289 293 294 291 289 288
140 189 44 257 269 256 221 155 155 144 162 196 178 224 219 211 228 233 217 202 202 196 199 202 202 195 189 186 189 190 189 202 205 219 232 243 254 267 284 300 309 310 306 305 305 304 301 296 294
345 281 25 251 254 248 189 153 154 162 188 183 193 185 233 230 226 226 221 208 206 205 205 207 206 202 198 203 205 201 201 206 212 216 213 212 224 295 337 350 340 340 344 342 343 336 328 322 320
158 99 229 250 256 298 212 160 169 186 178 189 185 166 225 217 217 223 216 213 214 211 212 213 208 207 210 211 211 207 202 203 207 209 212 198 156 183 158 309 340 347 352 345 341 337 331 328 325
274 98 283 247 243 247 160 147 187 210 241 221 201 219 227 227 214 212 213 216 218 216 218 220 217 216 217 218 217 211 204 198 197 199 203 202 211 269 355 350 351 349 343 339 333 331 329 326 326
265 49 259 261 268 216 171 160 194 233 233 205 206 238 234 226 211 208 210 215 219 220 223 221 220 221 218 220 215 210 204 202 207 212 211 218 242 269 306 322 329 330 333 337 332 331 328 320 317
169 158 236 232 290 282 209 199 196 205 233 234 232 237 246 241 227 220 220 223 226 224 224 225 224 223 223 223 219 215 213 215 217 223 232 241 255 268 276 287 300 314 318 319 322 321 321 320 317
204 213 219 288 307 302 276 248 239 201 235 229 235 239 239 242 238 235 234 239 241 234 228 229 226 227 225 225 223 221 218 218 221 226 234 239 247 254 262 273 285 293 301 309 314 319 320 316 311
229 247 256 279 280 268 264 275 258 236 246 260 256 253 247 238 240 242 240 241 238 236 236 233 229 228 228 226 224 223 223 224 225 227 231 234 244 254 263 272 278 287 291 294 304 316 320 318 315
224 260 272 278 282 253 248 257 257 267 260 258 253 258 251 246 247 245 248 245 241 238 238 235 232 230 228 228 224 223 222 224 226 229 231 237 242 250 259 267 274 279 283 290 301 307 311 313 311
248 263 272 280 271 251 210 259 235 272 274 263 246 246 254 254 255 253 246 245 241 241 238 237 234 231 228 227 225 225 224 226 227 228 231 233 238 247 257 264 271 273 280 290 300 306 314 318 319
278 313 309 265 255 224 202 284 225 270 262 257 253 249 245 252 253 255 256 252 247 243 239 238 236 233 230 227 226 224 224 226 228 229 230 232 237 245 252 258 263 269 277 290 299 308 318 322 319
237 193 285 273 136 195 154 260 247 256 251 247 245 247 243 248 251 256 258 257 251 243 237 236 236 235 233 227 226 224 224 226 230 231 231 233 240 245 249 252 256 262 275 288 296 306 317 322 320
263 237 216 297 188 142 174 254 270 263 240 245 249 246 245 250 255 253 257 256 252 245 238 234 236 234 233 228 226 225 226 229 231 232 235 235 237 240 242 248 253 260 273 285 294 306 315 320 320
213 225 242 237 200 163 199 246 260 255 246 239 248 255 255 256 262 264 261 255 247 242 240 237 235 231 231 230 226 226 226 229 231 232 233 233 235 235 239 245 250 258 269 281 292 302 312 320 321
237 256 238 268 259 205 240 240 251 255 257 249 258 264 265 268 274 271 267 258 243 236 233 232 231 228 227 226 221 223 226 227 231 232 233 234 235 236 239 244 249 258 273 282 288 295 306 317 322
248 259 264 278 270 198 251 252 254 240 248 251 243 256 262 265 270 270 261 253 235 233 230 230 231 230 229 229 227 228 231 231 235 237 236 236 236 237 239 243 247 255 268 279 287 294 303 313 323
248 248 258 255 291 238 283 267 251 244 244 249 255 259 264 262 265 265 253 244 229 225 227 229 231 231 230 230 227 227 226 230 231 232 234 235 236 236 238 240 245 254 267 276 281 287 295 307 313
262 224 256 270 281 274 136 290 220 239 236 238 247 255 259 265 264 261 245 235 226 226 226 231 233 230 229 229 226 227 228 228 232 237 239 238 237 237 238 240 244 251 265 274 278 283 292 299 304
263 210 246 228 241 316 176 283 209 192 235 243 244 252 264 268 268 247 234 232 222 222 225 230 232 228 227 228 228 229 231 234 237 239 237 236 236 236 237 240 244 250 261 270 274 280 289 295 297
130 123 4 27 59 264 180 210 180 193 218 230 244 254 260 260 257 243 231 221 220 222 225 228 226 226 226 227 230 231 233 235 234 234 233 234 235 235 237 238 241 247 257 266 270 276 283 289 294
154 85 304 314 359 258 183 220 254 284 230 214 225 240 237 244 249 233 213 214 220 223 224 224 224 224 224 226 229 232 234 235 234 236 238 235 234 234 235 237 240 245 254 264 270 274 281 288 293
196 184 176 214 264 278 120 249 253 226 236 240 236 240 239 241 219 228 214 222 224 224 224 223 224 225 225 226 228 231 235 236 236 236 239 238 238 238 238 238 238 242 249 259 264 270 276 283 288
176 176 215 339 94 334 262 272 291 292 276 273 246 240 234 232 212 218 224 229 229 226 226 225 226 226 227 227 228 231 235 236 236 236 239 239 239 237 234 235 238 240 245 254 263 269 274 279 285
174 170 86 247 211 243 270 258 270 284 280 280 244 216 209 204 214 219 231 237 238 238 236 233 232 234 232 230 230 232 236 236 238 238 240 238 237 235 234 234 235 240 246 253 258 265 271 278 284
127 253 230 262 193 247 262 273 220 193 236 308 245 228 216 221 236 244 241 244 246 245 242 239 237 238 237 238 236 235 235 235 236 239 239 238 236 234 233 234 236 239 246 253 258 264 269 276 281
198 214 211 238 257 231 267 266 270 313 325 330 304 246 206 213 281 279 264 277 273 256 247 246 245 243 244 243 240 238 237 237 238 240 239 238 235 234 233 233 235 238 243 250 255 261 270 275 280